Wind_Speed
17 26 28 34 34 32 51 46 49 49 46 36 39 37 38 38 38 39 40 36 34 35 33 30 31 31 31 32 27 24 23 22
17 22 20 33 40 31 41 43 44 44 41 37 39 38 38 41 40 41 37 42 38 35 37 31 34 29 36 32 28 27 25 23
15 21 23 25 28 25 31 41 44 46 45 44 41 41 40 38 40 39 42 46 42 36 39 36 36 32 34 35 33 31 28 25
18 21 23 24 24 31 25 43 43 47 44 42 32 33 29 33 35 39 43 46 46 46 42 41 37 41 37 39 38 34 33 30
11 21 26 27 27 27 20 29 45 47 45 42 45 38 34 33 37 37 42 47 49 49 45 46 37 44 42 41 41 38 36 30
19 21 36 30 27 31 29 23 35 41 47 45 46 41 38 38 35 36 36 47 50 47 51 46 44 43 48 43 43 44 42 34
15 25 32 34 32 34 34 21 19 41 45 48 47 47 40 39 37 38 37 41 47 50 49 52 52 40 47 48 45 47 47 42
14 18 26 31 31 32 34 29 26 26 49 46 48 48 47 44 44 40 40 34 40 47 52 48 51 51 44 50 47 48 51 49
16 19 25 31 35 30 33 33 28 29 42 50 51 48 49 47 44 43 43 42 41 45 46 45 49 48 46 47 50 49 50 50
19 24 27 31 34 35 35 33 28 29 29 50 54 52 50 51 48 46 43 45 43 40 47 45 46 47 48 46 45 47 45 51
20 23 29 31 33 37 33 30 27 27 35 31 39 51 52 50 48 45 43 45 45 41 43 45 42 46 49 45 44 41 43 42
16 22 29 31 34 38 35 36 35 33 34 29 29 41 44 46 42 47 41 43 47 46 45 44 45 43 45 47 44 42 42 41
14 22 28 31 35 36 34 35 34 32 30 40 36 38 41 43 44 42 46 41 43 48 46 47 42 45 44 46 48 43 42 42
12 18 22 28 34 34 34 34 33 33 31 31 16 23 33 40 49 46 43 39 42 41 42 47 47 44 47 48 48 48 45 47
10 13 15 25 31 34 32 32 33 34 32 30 30 22 14 27 47 44 49 46 38 43 46 45 48 45 48 47 46 45 47 45
10 11 11 18 23 33 31 33 33 34 33 31 29 30 28 27 14 38 41 40 44 37 41 40 41 42 43 46 44 46 45 46
10 6 5 13 16 20 28 29 31 32 31 31 31 33 31 28 30 21 18 39 45 43 41 40 41 42 45 50 49 44 45 43
11 7 7 9 15 21 27 26 30 28 29 30 32 35 36 33 32 28 26 17 24 40 42 40 39 45 48 52 56 47 43 44
7 11 14 10 8 17 26 22 27 27 27 30 31 32 33 35 32 31 29 28 23 20 36 40 43 44 49 52 56 56 44 42
Wind_Direction
270 259 262 257 259 195 188 188 190 189 186 185 191 197 201 204 203 203 202 199 201 200 199 197 197 205 199 195 191 190 197 202
305 302 305 266 245 247 196 186 184 180 180 179 186 194 197 201 203 204 204 200 203 201 201 200 199 202 195 193 197 197 201 205
304 298 295 293 297 260 211 193 184 184 184 188 188 191 198 201 200 205 205 205 205 202 204 202 203 202 197 196 196 200 205 201
294 294 296 296 292 307 223 194 189 188 190 189 188 189 191 198 198 203 206 206 207 207 206 205 205 204 201 199 200 201 205 207
327 303 301 294 293 298 312 222 194 192 188 188 187 185 193 197 201 201 205 207 208 211 208 208 209 207 207 204 203 204 204 213
6 352 340 338 351 336 304 294 225 200 191 191 190 194 197 198 201 204 202 205 209 209 210 208 210 212 211 208 205 207 210 212
4 356 346 343 349 345 333 333 264 225 201 194 193 195 194 198 200 200 204 201 203 207 208 210 212 213 210 211 211 208 210 214
1 359 346 336 341 337 333 332 326 269 217 203 199 198 196 199 200 200 203 198 199 203 206 206 209 212 215 213 214 214 213 213
359 357 347 337 334 337 326 317 325 317 231 220 208 200 199 203 200 201 204 205 202 204 202 204 209 211 213 214 214 216 215 217
357 352 348 339 336 336 324 317 331 333 324 221 214 204 201 202 203 201 203 205 208 202 204 205 206 210 211 213 212 216 213 217
359 350 348 344 344 340 356 351 352 354 328 282 253 210 207 205 204 203 206 205 204 199 200 203 207 208 212 210 213 215 214 215
356 348 350 347 351 349 352 348 348 353 357 336 257 282 214 209 206 207 207 201 201 200 201 202 207 209 209 208 212 213 215 216
351 347 352 352 358 349 345 349 348 351 359 351 238 270 252 216 214 211 209 199 198 203 205 208 210 211 211 210 211 213 213 215
357 352 355 355 359 352 349 350 350 353 1 10 354 213 259 256 230 216 210 204 199 199 200 205 209 211 212 212 212 212 214 217
350 356 345 355 352 348 349 350 355 1 1 12 0 2 322 263 236 220 220 217 206 202 204 206 208 211 212 213 213 213 216 219
7 343 340 339 348 1 345 350 359 4 3 5 5 354 352 346 303 237 229 224 220 212 207 210 210 211 213 213 213 214 215 219
324 322 348 329 327 348 350 345 354 2 1 1 5 0 2 355 3 346 292 234 228 224 219 210 212 212 215 215 213 214 216 218
308 310 285 296 338 345 347 343 349 358 356 360 6 5 359 3 5 356 347 325 269 237 230 223 216 217 218 217 216 214 215 218
308 330 327 280 336 3 349 347 347 346 353 356 4 2 1 358 1 1 346 344 335 311 244 231 225 221 221 219 219 215 217 219
Height
752 750 751 751 752 756 759 767 772 774 776 784 796 802 806 809 812 816 821 824 828 831 834 838 842 846 849 854 857 859 862 866
749 749 751 749 745 748 755 760 760 763 771 778 785 791 798 802 806 809 814 820 823 827 830 834 838 841 845 849 854 857 859 862
744 744 746 747 747 743 746 749 750 754 761 767 773 780 789 795 801 804 808 813 818 822 825 828 832 836 840 844 847 852 855 857
744 739 743 744 746 746 742 740 745 748 754 762 771 778 784 792 795 797 799 804 810 814 818 823 826 830 833 836 841 845 850 853
749 740 740 742 741 742 745 745 738 741 748 754 758 763 770 776 782 788 791 796 801 806 811 817 820 823 826 830 835 840 844 845
763 760 745 740 742 741 740 741 743 739 738 742 748 754 760 766 774 781 785 788 793 798 802 808 813 816 819 823 828 833 837 839
769 764 757 748 745 742 739 741 734 737 735 732 736 741 748 756 762 770 775 777 783 788 793 798 804 808 811 816 820 825 828 833
775 769 763 757 752 745 738 735 734 729 729 728 728 730 737 741 747 755 764 769 773 776 781 787 792 797 803 809 812 816 819 823
778 772 769 762 753 749 739 731 726 726 721 724 721 721 725 730 735 742 750 756 760 765 773 778 784 789 794 800 804 807 812 815
778 775 772 767 756 747 738 729 724 723 721 713 710 710 712 714 720 728 736 743 750 758 763 770 775 780 785 791 796 798 802 805
779 777 772 768 760 747 736 730 725 725 721 707 705 705 708 710 712 715 724 731 740 746 751 760 767 771 775 780 785 790 794 796
788 783 776 770 760 749 738 731 725 723 721 712 707 716 707 708 708 710 714 722 727 735 740 746 754 760 765 770 773 779 784 788
789 783 778 770 762 753 745 739 731 725 722 711 702 678 706 702 704 705 707 709 718 725 730 737 742 749 755 758 761 767 772 777
790 785 780 773 766 758 751 744 735 724 718 716 705 701 691 700 700 696 698 703 707 716 722 725 730 735 742 745 749 754 760 763
789 787 783 777 772 763 754 748 738 725 717 713 714 712 707 704 692 686 690 696 699 703 707 712 716 722 729 734 739 743 749 753
791 789 785 780 775 764 756 748 739 729 721 716 714 708 701 692 682 684 682 684 689 693 700 706 710 714 720 726 730 733 736 741
789 785 782 781 773 766 761 752 744 734 731 722 714 708 704 698 679 679 681 684 682 685 689 695 700 702 706 712 717 722 725 730
786 782 778 772 767 764 757 753 745 741 735 727 715 707 699 694 686 684 685 678 677 680 683 686 689 691 695 699 705 710 714 717
784 780 775 771 770 765 760 754 748 743 737 730 720 714 708 700 693 691 688 681 678 675 675 673 677 679 683 686 693 698 703 705